Regional Weather Roundup
Issued by NWS

Home | Current Version | Previous Version | Graphics & Text | Print | Product List | Glossary On
Versions: 1 2 3 4 5 6 7 8 9 10 11 12 13 14 15 16 17 18 19 20 21 22 23 24 25 26 27 28 29 30 31 32 33 34 35 36 37 38 39 40 41 42 43 44 45 46 47 48 49 50
000
ASUS43 KOAX 201702
RWRNE

WEATHER ROUNDUP FOR NEBRASKA
NATIONAL WEATHER SERVICE OMAHA NE
1100 AM CST SAT DEC 20 2014

NOTES: SATELLITE DATA IS BEING USED TO AUGMENT CLOUD COVER ABOVE
       12000 FEET.
       "FAIR" INDICATES FEW OR NO CLOUDS BELOW 12,000 FEET WITH NO
       SIGNIFICANT WEATHER AND/OR OBSTRUCTIONS TO VISIBILITY.

  * THESE STATIONS DO NOT REPORT WEATHER SUCH AS RAIN...SNOW OR FOG.

NEZ001>004-019>022-054>056-201800-
NEBRASKA PANHANDLE

CITY           SKY/WX    TMP DP  RH WIND       PRES   REMARKS
SCOTTSBLUFF    CLOUDY    27  22  81 CALM      29.99S
ALLIANCE       CLOUDY    24  20  84 W7        29.97R WCI  16
CHADRON        CLOUDY    37  26  64 SW9       29.96R WCI  30
SIDNEY         PTSUNNY   39  26  59 W10       30.01R WCI  32
$$

NEZ057>060-069>072-079>082-201800-
SOUTHWEST NEBRASKA

CITY           SKY/WX    TMP DP  RH WIND       PRES   REMARKS
NORTH PLATTE   MOSUNNY   30  24  78 W6        30.01F WCI  24
IMPERIAL       CLOUDY    30  22  72 W6        30.02S WCI  24
MCCOOK         PTSUNNY   33  26  75 W7        30.04S WCI  27
$$

NEZ005>010-023>029-035>040-094-201800-
NORTH CENTRAL NEBRASKA

CITY           SKY/WX    TMP DP  RH WIND       PRES   REMARKS
VALENTINE      MOSUNNY   25  21  85 SW7       29.96S WCI  17
AINSWORTH      SUNNY     30  23  75 SW9       29.96S WCI  21
BROKEN BOW     SUNNY     32  27  81 CALM      30.00F
$$

NEZ041-046>049-061>064-073>077-083>087-201800-
SOUTH CENTRAL NEBRASKA

CITY           SKY/WX    TMP DP  RH WIND       PRES   REMARKS
GRAND ISLAND   FOG       29  28  96 SE5       30.07F VSB<1/4 WCI  24
HASTINGS       HAZE      33  28  81 CALM      30.05F VSB 1
KEARNEY *      SUNNY     27  27 100 S5        30.05S WCI  21
$$

NEZ011>018-030>034-042>045-201800-
NORTHEAST NEBRASKA

CITY           SKY/WX    TMP DP  RH WIND       PRES   REMARKS
NORFOLK        CLOUDY    32  30  92 S9        30.07S FOG     WCI  24
COLUMBUS *     CLOUDY    32  28  86 S3        30.11R
TEKAMAH        CLOUDY    34  32  92 S8        30.12F FOG     WCI  27
$$

NEZ050>053-065>068-078-088>093-201800-
SOUTHEAST NEBRASKA

CITY           SKY/WX    TMP DP  RH WIND       PRES   REMARKS
LINCOLN        CLOUDY    33  31  92 CALM      30.12F FOG
OMAHA EPPLEY   CLOUDY    33  31  92 S7        30.14S FOG     WCI  27
FALLS CITY     CLOUDY    33  30  88 S7        30.14S WCI  27
NEBRASKA CITY  CLOUDY    33  33 100 SW5       30.12F FOG     WCI  29
$$

NEZ044-045-051>053-067-201800-
OMAHA AREA

CITY           SKY/WX    TMP DP  RH WIND       PRES   REMARKS
OMAHA EPPLEY   CLOUDY    33  31  92 S7        30.14S FOG     WCI  27
OFFUTT AFB     CLOUDY    33  31  92 SE6       30.13S WCI  28
WAHOO          CLOUDY    33  31  94 CALM      30.11S FOG
$$



USA.gov is the U.S. government's official web portal to all federal, state and local government web resources and services.